Location: Ravensburg
(47.7866°N, 9.6124°E)
Time: 18:23:28
(UTC+01:00)

NOAA 15 - Visible Passes

Search period start: 14 March 2026 00:00
Search period end: 24 March 2026 00:00
Orbit: 795 x 808 km, 98.5° (Epoch: 14 March)

Date Brightness Start Highest point End Pass type
(mag) Time Alt. Az. Time Alt. Az. Time Alt. Az.
14 Mar 8.4 06:03:58 10° ENE 06:04:57 10° E 06:05:57 10° E visible
14 Mar 5.5 19:03:22 10° S 19:08:33 55° W 19:13:46 10° NNW visible
15 Mar 7.6 20:20:10 10° WSW 20:22:44 14° W 20:25:20 10° WNW visible
16 Mar 7.2 19:52:03 10° SW 19:56:10 23° W 20:00:18 10° NW visible
17 Mar 6.3 19:24:50 10° SSW 19:29:42 37° W 19:34:36 10° NNW visible
18 Mar 5.3 18:58:07 10° S 19:03:20 61° WSW 19:08:36 10° NNW visible
19 Mar 7.6 20:14:29 10° WSW 20:17:28 15° W 20:20:28 10° NW visible
20 Mar 7.0 19:46:37 10° SSW 19:50:55 25° W 19:55:15 10° NW visible
21 Mar 6.1 19:19:30 10° SSW 19:24:28 40° W 19:29:29 10° NNW visible
23 Mar 7.5 20:08:53 10° SW 20:12:12 17° W 20:15:32 10° NW visible
